Content
SEND FEEDBACK

Daily
Averages
Monthly
Summary
United States of America

OAKS, TEXAS


Home > North America > United States > Texas
Elevation: 250 feet     Latitude: 28 35N     Longitude: 098 08W

WEATHER
 
SELECT A DAY
Number of Records: 175,087;   Date Range: 5/14/07 - 9/20/14
 
SHARE

PRINT THIS DATA

[ ← Previous Day ]
WEATHER ALMANAC - FEBRUARY 1, 2013
[ Next Day → ]
[ °C ]   °F
Weather ElementAverageHighLow
Temperature59.1 °F73.4 °F (1:15 pm)48.2 °F (12:35 am)
Dewpoint41.8 °F48.2 °F (9:35 am)35.6 °F (2:55 pm)
Humidity57.1 %82 % (6:15 am)25 % (2:55 pm)
Barometer30.27 in30.35 in (9:35 am)30.21 in (4:15 pm)
Wind Speed6.9 mph17.3 mph (1:55 pm)
Wind Gust25.3 mph (1:35 pm)
Weather ElementAverage
Visibility10 mi
Wind DirectionESE (102.5 °)

Weather ElementTotal
Precipitation---
Heating Degree Days4.2 (Base 65)
Growing Degree Days10.8 (Base 50)
Averaged from 65 records on February 1, 2013
WEATHER CONDITIONS BREAKOUT
WIND DIRECTION BREAKOUT
WEATHER BY HOUR - FEBRUARY 1, 2013
[ °C ]   °F
Local TimeTemperatureDewpointHumidityBarometerVisibilityWind DirectionWind SpeedGust SpeedPrecipitationEventsConditions
12:35 AM48.2 °F39.2 °F71 %30.29 in10.0 miEast (80°)3.5 mphClear
12:55 AM50.0 °F41.0 °F71 %30.28 in10.0 miEast (80°)3.5 mphClear
1:15 AM50.0 °F41.0 °F71 %30.28 in10.0 miCalmClear
1:35 AM50.0 °F41.0 °F71 %30.28 in10.0 miENE (70°)3.5 mphClear
1:55 AM50.0 °F41.0 °F71 %30.28 in10.0 miENE (70°)3.5 mphClear
2:15 AM50.0 °F41.0 °F71 %30.28 in10.0 miCalmClear
2:35 AM50.0 °F42.8 °F76 %30.28 in10.0 miCalmClear
2:55 AM51.8 °F42.8 °F71 %30.28 in10.0 miEast (100°)3.5 mphClear
3:15 AM50.0 °F42.8 °F76 %30.28 in10.0 miEast (80°)3.5 mphClear
3:55 AM50.0 °F42.8 °F76 %30.29 in10.0 miCalmClear
4:15 AM50.0 °F42.8 °F76 %30.30 in10.0 miENE (70°)3.5 mphClear
4:35 AM50.0 °F42.8 °F76 %30.29 in10.0 miENE (60°)3.5 mphClear
4:55 AM50.0 °F42.8 °F76 %30.30 in10.0 miCalmClear
5:15 AM50.0 °F42.8 °F76 %30.29 in10.0 miENE (60°)3.5 mphClear
5:35 AM50.0 °F42.8 °F76 %30.28 in10.0 miCalmClear
5:55 AM50.0 °F42.8 °F76 %30.29 in10.0 miENE (70°)3.5 mphClear
6:15 AM48.2 °F42.8 °F82 %30.30 in10.0 miNE (50°)3.5 mphClear
6:35 AM48.2 °F42.8 °F82 %30.30 in10.0 miCalmClear
6:55 AM50.0 °F42.8 °F76 %30.30 in10.0 miCalmClear
7:15 AM50.0 °F42.8 °F76 %30.30 in10.0 miCalmClear
7:55 AM50.0 °F44.6 °F82 %30.31 in10.0 miCalmClear
8:15 AM51.8 °F46.4 °F82 %30.33 in10.0 miCalmClear
8:55 AM59.0 °F46.4 °F63 %30.33 in10.0 miCalmClear
9:15 AM60.8 °F46.4 °F59 %30.34 in10.0 miSouth (170°)4.6 mphClear
9:35 AM62.6 °F48.2 °F59 %30.35 in10.0 miSouth (170°)8.1 mphClear
9:55 AM64.4 °F48.2 °F56 %30.34 in10.0 miSouth (180°)8.1 mphClear
10:15 AM66.2 °F48.2 °F52 %30.34 in10.0 miSSE (160°)10.4 mphClear
10:35 AM68.0 °F46.4 °F46 %30.34 in10.0 miSouth (170°)10.4 mphClear
10:55 AM69.8 °F46.4 °F43 %30.33 in10.0 miSouth (170°)11.5 mphClear
11:15 AM69.8 °F44.6 °F40 %30.32 in10.0 miSouth (180°)11.5 mph16.1 mphClear
11:35 AM69.8 °F41.0 °F35 %30.32 in10.0 miSSE (160°)6.9 mph16.1 mphClear
11:55 AM69.8 °F41.0 °F35 %30.32 in10.0 miSouth (170°)10.4 mph18.4 mphClear
12:15 PM71.6 °F41.0 °F33 %30.31 in10.0 miSSE (150°)9.2 mphClear
12:35 PM71.6 °F39.2 °F31 %30.30 in10.0 miSSE (150°)12.7 mph17.3 mphClear
1:15 PM73.4 °F37.4 °F27 %30.27 in10.0 miSSE (150°)12.7 mph20.7 mphClear
1:35 PM73.4 °F37.4 °F27 %30.26 in10.0 miSSE (150°)10.4 mph25.3 mphClear
1:55 PM73.4 °F37.4 °F27 %30.25 in10.0 miSE (130°)17.3 mph23.0 mphClear
2:15 PM71.6 °F37.4 °F29 %30.24 in10.0 miSSE (160°)13.8 mph23.0 mphClear
2:35 PM71.6 °F37.4 °F29 %30.24 in10.0 miSSE (150°)16.1 mph23.0 mphClear
2:55 PM73.4 °F35.6 °F25 %30.23 in10.0 miSSE (150°)12.7 mph21.9 mphClear
3:15 PM71.6 °F35.6 °F27 %30.23 in10.0 miSE (130°)12.7 mph17.3 mphClear
3:35 PM71.6 °F35.6 °F27 %30.23 in10.0 miSSE (160°)15.0 mph20.7 mphClear
3:55 PM71.6 °F37.4 °F29 %30.22 in10.0 miSE (140°)16.1 mph20.7 mphClear
4:15 PM71.6 °F35.6 °F27 %30.21 in10.0 miSSE (150°)17.3 mphClear
4:35 PM69.8 °F35.6 °F28 %30.21 in10.0 miSSE (160°)16.1 mph21.9 mphClear
4:55 PM69.8 °F35.6 °F28 %30.21 in10.0 miSE (140°)12.7 mph23.0 mphClear
5:15 PM68.0 °F35.6 °F30 %30.21 in10.0 miSSE (150°)12.7 mph19.6 mphClear
5:35 PM68.0 °F37.4 °F33 %30.21 in10.0 miSE (140°)13.8 mphClear
5:55 PM64.4 °F39.2 °F40 %30.21 in10.0 miSSE (150°)13.8 mph17.3 mphClear
6:15 PM62.6 °F41.0 °F45 %30.21 in10.0 miSE (140°)10.4 mphClear
6:55 PM60.8 °F41.0 °F48 %30.23 in10.0 miSE (130°)9.2 mphClear
7:15 PM59.0 °F42.8 °F55 %30.23 in10.0 miESE (120°)6.9 mphClear
7:35 PM59.0 °F42.8 °F55 %30.23 in10.0 miESE (120°)6.9 mphClear
8:15 PM55.4 °F42.8 °F63 %30.24 in10.0 miESE (120°)5.8 mphClear
8:35 PM55.4 °F42.8 °F63 %30.24 in10.0 miESE (110°)5.8 mphClear
8:55 PM53.6 °F42.8 °F67 %30.23 in10.0 miESE (110°)4.6 mphClear
9:15 PM53.6 °F44.6 °F72 %30.24 in10.0 miESE (120°)5.8 mphClear
9:35 PM53.6 °F44.6 °F72 %30.24 in10.0 miESE (110°)3.5 mphClear
9:55 PM51.8 °F42.8 °F71 %30.24 in10.0 miEast (100°)4.6 mphClear
10:15 PM51.8 °F42.8 °F71 %30.24 in10.0 miEast (100°)3.5 mphClear
10:35 PM51.8 °F44.6 °F76 %30.24 in10.0 miEast (100°)4.6 mphClear
10:55 PM51.8 °F44.6 °F76 %30.23 in10.0 miESE (110°)3.5 mphClear
11:15 PM51.8 °F44.6 °F76 %30.23 in10.0 miESE (120°)5.8 mphClear
11:35 PM51.8 °F44.6 °F76 %30.22 in10.0 miESE (110°)4.6 mphClear
11:55 PM51.8 °F46.4 °F82 %30.21 in10.0 miESE (110°)4.6 mphClear
Hourly data recorded from KBEA, located miles away from Oaks, Texas







STORIES FROM OUR PARTNERS